This demonstration page uses our WeatherBlox Daily Observations layout. Learn more.

Left ArrowRight Arrow

40.92501, -98.34201

Hourly Observations for June 30, 2020

Temp ( °F °C ) Dew Point ( °F °C ) Humidity (%) Winds ( mph kmh ) Pressure ( in mb ) Visibility ( mi km ) Precip ( " mm )
12:53 am 00:53 Clear 79 26.1 72 22.2 79 79 SSE 16 26 29.59 1002 8 13 0.00 0.00
1:53 am 01:53 Clear 78 25.6 72 22.2 82 82 SSE 16 26 29.60 1002 8 13 0.00 0.00
2:53 am 02:53 Clear 77 25 72 22.2 85 85 SSE 16 26 29.59 1002 7 11 0.00 0.00
3:53 am 03:53 Clear with Mist and Fog 76 24.4 72 22.2 88 88 SSE 12 19 29.59 1002 6 10 0.00 0.00
4:53 am 04:53 Clear with Mist and Fog 75 23.9 72 22.2 90 90 SSE 12 19 29.59 1002 5 8 0.00 0.00
5:37 am 05:37 Mostly Clear with Mist and Fog 75 23.9 72 22.2 90 90 SE 12 19 29.57 1001 5 8 0.00 0.00
5:53 am 05:53 Partly Cloudy with Mist and Fog 74 23.3 72 22.2 94 94 SE 9 15 29.60 1002 4 6 0.00 0.00
6:00 am 06:00 Mostly Cloudy with Mist and Fog 74 23.3 72 22.2 94 94 SE 10 17 29.57 1001 4 6 0.00 0.00
6:53 am 06:53 Cloudy with Mist and Fog 75 23.9 71 21.7 88 88 SSE 12 19 29.60 1002 4 6 0.00 0.00
7:53 am 07:53 Mostly Cloudy with Haze 76 24.4 71 21.7 85 85 SSE 14 22 29.60 1002 5 8 0.00 0.00
8:07 am 08:07 Mostly Cloudy with Haze 77 25 71 21.7 82 82 SSE 17 28 29.55 1001 5 8 0.00 0.00
8:53 am 08:53 Mostly Cloudy with Haze 79 26.1 71 21.7 77 77 SSE 16 26 29.60 1002 6 10 0.00 0.00
9:53 am 09:53 Mostly Cloudy 81 27.2 72 22.2 74 74 SSE 15 24 29.61 1003 7 11 0.00 0.00
10:53 am 10:53 Mostly Cloudy 84 28.9 72 22.2 67 67 SSE 13 20 29.61 1003 8 13 0.00 0.00
11:53 am 11:53 Cloudy 84 28.9 72 22.2 67 67 SE 14 22 29.62 1003 9 14 0.00 0.00
12:53 pm 12:53 Mostly Cloudy 86 30 72 22.2 63 63 SE 14 22 29.62 1003 9 14 0.00 0.00
1:53 pm 13:53 Mostly Cloudy 86 30 72 22.2 63 63 SE 17 28 29.63 1003 10 16 0.00 0.00
2:04 pm 14:04 Mostly Cloudy 87 30.6 71 21.7 59 59 SSE 16 26 29.55 1001 10 16 0.00 0.00
2:53 pm 14:53 Mostly Cloudy 87 30.6 71 21.7 59 59 SSE 20 31 29.63 1003 10 16 0.00 0.00
3:53 pm 15:53 Mostly Sunny 89 31.7 71 21.7 55 55 SE 17 28 29.62 1003 10 16 0.00 0.00
4:53 pm 16:53 Mostly Cloudy 90 32.2 72 22.2 56 56 SSE 16 26 29.62 1003 10 16 0.00 0.00
5:53 pm 17:53 Mostly Cloudy 88 31.1 73 22.8 61 61 SE 13 20 29.63 1003 10 16 0.00 0.00
6:53 pm 18:53 Mostly Sunny 89 31.7 75 23.9 63 63 SE 8 13 29.63 1004 10 16 0.00 0.00
7:53 pm 19:53 Mostly Sunny 87 30.6 75 23.9 67 67 E 8 13 29.65 1004 8 13 0.00 0.00
8:53 pm 20:53 Sunny 84 28.9 75 23.9 74 74 E 10 17 29.65 1004 7 11 0.00 0.00
9:00 pm 21:00 Sunny with Nearby Thunderstorms 83 28.3 75 23.9 77 77 E 13 20 29.58 1002 7 11 0.00 0.00
9:09 pm 21:09 Sunny with Thunderstorms 83 28.3 74 23.3 74 74 E 12 19 29.59 1002 7 11 0.00 0.00
9:30 pm 21:30 Very Windy with Storms Likely 71 21.7 65 18.3 81 81 NW 47 76 29.68 1005 2 3 0.00 0.00
9:38 pm 21:38 Cloudy with Strong Thunderstorms 67 19.4 64 17.8 91 91 NW 31 50 29.71 1006 1 1 0.06 1.52
9:53 pm 21:53 Cloudy with Strong Thunderstorms 67 19.4 63 17.2 87 87 NNE 28 44 29.69 1006 1 2 0.44 11.18
10:00 pm 22:00 Cloudy with Strong Thunderstorms 69 20.6 65 18.3 87 87 NNE 21 33 29.66 1004 2 2 0.12 3.05
10:05 pm 22:05 Cloudy with Thunderstorms 70 21.1 66 18.9 87 87 NNE 16 26 29.67 1005 3 5 0.18 4.57
10:17 pm 22:17 Cloudy with Thunderstorms 70 21.1 65 18.3 84 84 NNW 8 13 29.69 1006 6 10 0.22 5.59
10:49 pm 22:49 Mostly Cloudy with Nearby Thunderstorms 72 22 66 19 83 83 NNW 16 26 29.70 1006 10 16 0.26 6.60
10:53 pm 22:53 Partly Cloudy with Light Rain 71 21.7 65 18.3 81 81 NNW 18 30 29.72 1007 10 16 0.26 6.60
11:06 pm 23:06 Mostly Clear with Nearby Thunderstorms 72 22.2 65 18.3 79 79 N 16 26 29.70 1006 10 16 0.00 0.00
11:24 pm 23:24 Clear 71 21.7 65 18.3 81 81 N 13 20 29.72 1006 10 16 0.00 0.00
11:53 pm 23:53 Clear 70 21.1 65 18.3 84 84 NNW 8 13 29.74 1007 10 16 0.00 0.00

Powered by AerisWeather